Tracking 29068 objects as of 19-Jul-2024
HD Live streaming from Space Station
objects crossing your sky now

STARLINK-6334

Track STARLINK-6334 now!
10-day predictions
STARLINK-6334 is classified as:


NORAD ID: 57238
Int'l Code: 2023-094W
Perigee: 565.2 km
Apogee: 567.2 km
Inclination: 43.0 °
Period: 95.8 minutes
Semi major axis: 6937 km
RCS: Unknown
Launch date: July 7, 2023
Source: United States (US)
Launch site: AIR FORCE WESTERN TEST RANGE (AFWTR)
Your satellite tracking list
Your tracking list is empty




NASA's NSSDC Master Catalog

Two Line Element Set (TLE):
1 57238U 23094W   24200.25135102  .00001164  00000-0  10125-3 0  9994
2 57238  43.0050  34.9590 0001402 270.3636  89.7045 15.02537925 57096
Source of the keplerian elements: AFSPC